Weather in Alekseevskoe

Russia / Republic of Tatarstan     55°18′25″N   50°07′08″E
temp.,
°C
wind,
m/s
gust,
m/s
humid.,
%
clouds,
%
prec.,
mm/h
press.,
hPa
HPBL,
m
18 may, tue
tue1800:00+17wnw51080100 0.0 1017205
03:00+16ne498613 0.0 1017141
06:00+20e612766 0.0 1017297
09:00+25e45535 0.0 1017642
12:00+27ene44495 0.0 10171020
15:00+27ene44455 0.1 1017947
18:00+24ene485918 0.0 1016200
21:00+20e511614 0.0 1017214
19 may, wed
wed1900:00+18e613585 0.0 1017277
03:00+16e411685 0.0 1018247
06:00+17e511725 0.0 1018341
09:00+22e68555 0.0 1018868
12:00+24e78440 0.0 10181318
15:00+26ese68411 0.0 10171667
18:00+24ese48560 0.0 1016260
21:00+19ese411705 0.0 1017193
20 may, thu
thu2000:00+17ese5116899 0.0 1017209
03:00+16se512682 0.0 1018236
06:00+17se6136424 0.0 1018404
09:00+21se6954100 0.0 1018711
12:00+23se794242 0.0 10171591
15:00+24se793848 0.0 10161714
18:00+21se510500 0.0 1014418
21:00+16ese49650 0.0 1014150
21 may, fri
fri2100:00+15se4106499 0.0 1013190
03:00+15s3876100 0.1 1012206
06:00+14sse4794100 2.8 1013304
09:00+19ssw796826 3.1 10131178
12:00+21sw685639 1.1 10141785
15:00+20ssw696378 1.8 10151198
18:00+18wsw6106739 0.1 1016503
21:00+15ssw49735 0.1 1017150
22 may, sat
sat2200:00+14sw498090 0.0 1018154
03:00+13sw3585100 0.0 102092
06:00+15sw4676100 0.0 1021284
09:00+19wsw466379 0.0 1021778
12:00+20w146488 0.0 1020516
15:00+24ssw575268 0.0 10181502
18:00+22s51063100 0.0 1017315
21:00+20s71661100 0.0 1016410